Location: Buchhausen
(48.9550°N, 10.3001°E)
Time: 23:52:04
(UTC+00:00)

Daily predictions for brighter satellites

Satellite Brightness Start Highest point End
(mag) Time Altitude Azimuth Time Altitude Azimuth Time Altitude Azimuth
Thor Agena Rocket 3.8 15:48:42 10° SE 15:53:40 46° ENE 15:58:35 10° N
BlueWalker 3 2.1 15:52:24 10° WNW 15:56:01 72° SSW 15:59:38 10° SE
Cosmos 1356 Rocket 3.3 15:54:17 10° S 15:58:18 80° ESE 16:02:25 10° NNE
Meteor 1-28 Rocket 3.4 15:56:47 10° NNE 15:59:59 40° E 16:03:09 10° S
Cosmos 2026 Rocket 4.4 15:55:07 10° NNW 16:01:20 74° W 16:07:37 10° S
Cosmos 1544 Rocket 4.0 15:59:08 10° SSE 16:03:16 42° E 16:07:27 10° NNE
Cosmos 1484 Rocket 2.4 16:00:28 10° SSE 16:03:59 78° ENE 16:07:30 10° N
Cosmos 1697 Rocket 4.1 16:00:50 10° SE 16:04:42 19° E 16:08:34 10° NE
NOSS 2-2 (E) 3.4 16:01:56 10° SSW 16:05:10 40° SE 16:08:03 10° NE
BREEZE M DEB (TANK) 4.2 15:49:06 10° WNW 16:06:52 81° SSW 16:11:11 10° ESE
Intercosmos 24 3.7 16:05:14 10° N 16:09:11 65° E 16:12:41 10° SSE
Cosmos 1634 Rocket 4.0 16:03:08 10° S 16:09:20 83° E 16:15:32 10° N
Cosmos 405 Rocket 2.1 16:06:05 10° N 16:09:22 78° ENE 16:12:34 10° SSE
Okean 1-7 Rocket 4.4 16:07:44 10° N 16:11:33 28° ENE 16:15:18 10° SE
Lacrosse 5 rocket 1.7 16:09:17 10° W 16:12:55 46° NNW 16:16:22 11° NE
Cosmos 1461 4.0 16:14:11 10° S 16:17:23 25° ESE 16:20:09 12° ENE
CENTAUR R/B 3.0 16:11:55 10° WSW 16:17:37 56° NW 16:24:51 10° NE
Meteor 1-20 Rocket 4.4 16:15:22 10° N 16:20:40 47° ENE 16:25:55 10° SE
Cosmos 1455 Rocket 4.4 16:17:38 10° SW 16:21:42 39° WNW 16:25:50 10° N
Cosmos 1602 Rocket 3.7 16:19:04 10° N 16:23:22 49° ENE 16:27:35 10° SSE
Cosmos 2279 Rocket 4.0 16:17:44 10° S 16:23:55 76° E 16:30:10 10° NNE
Cosmos 1570 Rocket 4.5 16:21:32 10° NNW 16:26:51 68° WSW 16:32:06 10° S
IRIDIUM 103 4.5 16:23:29 10° N 16:28:36 52° E 16:33:41 10° SSE
SMAP 3.0 16:25:36 10° SSE 16:30:13 74° ENE 16:34:54 10° N
Cosmos 1656 3.7 16:26:08 10° SSW 16:31:45 81° ESE 16:37:28 10° NNE
UNK 3.7 16:28:19 10° NNE 16:32:54 63° ESE 16:37:25 10° S
YAOGAN 1 3.8 16:31:08 10° ESE 16:34:16 20° ENE 16:37:24 10° NNE
Cosmos 2228 3.8 16:31:08 10° SSW 16:35:16 53° WNW 16:39:27 10° N
NOSS 2-2 (C) 3.9 16:32:45 10° WSW 16:35:42 36° NW 16:38:06 13° NNE
Landsat 7 3.7 16:31:07 10° SSE 16:35:43 65° ENE 16:40:21 10° N
SAR-Lupe-4 3.6 16:32:33 10° SSE 16:36:02 56° ENE 16:39:32 10° N
Cosmos 1867 3.6 16:31:03 10° NW 16:36:27 57° NE 16:41:49 10° SE
Cosmos 1486 Rocket 4.0 16:31:37 10° SSW 16:36:47 70° ESE 16:42:01 10° NNE
Cosmos 2297 Rocket 2.2 16:34:43 10° NNW 16:40:26 88° WSW 16:46:06 10° SSE
USA 290 2.1 16:37:11 10° NNW 16:40:28 88° ENE 16:43:43 10° SSE
USA 215 3.8 16:35:28 14° ENE 16:40:41 44° N 16:46:50 10° WNW
Cosmos 2180 Rocket 4.4 16:35:22 10° S 16:41:27 73° E 16:47:36 10° NNE
Cosmos 773 Rocket 4.4 16:38:29 10° NNW 16:43:40 67° WSW 16:48:51 10° S
SAR-Lupe-1 4.0 16:41:32 10° SSE 16:45:05 62° ENE 16:48:40 10° N
Cosmos 1782 2.8 16:42:05 10° SSW 16:45:39 68° W 16:49:15 10° N
Cosmos 1953 Rocket 4.4 16:42:20 10° N 16:46:10 28° ENE 16:49:59 10° SE
IRIDIUM 106 4.2 16:41:44 10° N 16:46:59 73° E 16:52:11 10° S
ATLAS CENTAUR R/B 2.1 16:44:20 10° NW 16:47:25 41° WSW 16:50:23 10° SSE
CZ-4C R/B 2.9 16:41:37 10° NW 16:48:28 81° NE 16:57:04 10° SE
Cosmos 1607 4.0 16:43:28 10° NW 16:49:44 83° SW 16:56:01 10° SSE
Cosmos 1733 4.2 16:48:45 10° NW 16:49:58 18° W 16:51:11 10° SW
CZ-2D R/B 2.6 16:48:28 10° SSE 16:51:36 83° ENE 16:54:46 10° NNW
IRS-P3 4.0 16:49:16 10° SSE 16:54:32 69° ENE 16:59:50 10° N
Lacrosse 4 Rocket 3.5 16:52:44 10° W 16:55:39 19° NW 16:58:34 10° N
Meteor 1-25 Rocket 4.2 16:50:13 10° N 16:56:04 71° ENE 17:01:48 10° SSE
ARIANE 5 R/B 2.5 16:51:15 10° SSE 16:56:18 85° WSW 17:01:28 10° NNW
Cosmos 990 Rocket 4.4 16:51:59 10° S 16:56:45 41° ESE 16:59:48 20° NE
Cosmos 2219 4.0 16:52:04 10° NNW 16:57:05 30° NE 16:59:37 22° E
Cosmos 1825 Rocket 3.6 16:52:51 10° N 16:57:09 55° ENE 17:01:23 10° SSE
NOSS 2-3 (E) 4.4 16:55:59 10° S 16:58:58 24° ESE 16:59:21 23° ESE
Cosmos 2266 Rocket 3.9 16:53:21 10° N 16:59:34 87° E 17:05:38 10° S
NOSS 2-3 (D) 4.4 16:57:59 10° S 17:00:58 23° ESE 17:01:12 23° ESE
Cosmos 2098 Rocket 3.6 16:58:04 10° SSW 17:02:05 61° WNW 17:06:52 10° N
Meteor 1-5 Rocket 4.2 16:58:19 10° N 17:03:33 53° ENE 17:08:51 10° SSE
Cosmos 2151 3.3 17:00:37 10° NNW 17:04:44 65° W 17:08:51 10° S
Cosmos 1743 3.7 17:02:17 10° NNW 17:05:22 40° W 17:08:25 10° SSW
SPOT 1/Viking Rocket 3.5 17:01:09 10° SSE 17:06:15 60° ENE 17:11:23 10° N
Cosmos 1980 Rocket 3.1 17:02:17 10° SSE 17:06:58 27° ESE 17:08:00 26° E
Cosmos 1844 Rocket 4.3 17:07:47 10° N 17:10:59 17° NNE 17:10:59 17° NNE
SL-16 R/B 3.7 17:09:41 10° N 17:15:28 41° WNW 17:21:12 10° SW
Cosmos 2058 Rocket 4.2 17:11:55 10° SSE 17:14:42 26° ESE 17:14:42 26° ESE
Cosmos 2263 Rocket 2.3 17:13:16 10° NNW 17:18:50 53° NE 17:23:09 17° SE
NOSS 3-2 (C) 3.1 17:14:28 10° SW 17:19:32 89° WNW 17:23:02 26° NE
NOSS 3-2 (A) 4.0 17:14:54 10° WSW 17:19:55 47° NW 17:24:05 19° NNE
CZ-4 R/B 4.2 17:19:12 10° SSE 17:23:09 86° ENE 17:27:07 10° NNW
GEOS 3 Rocket 4.2 17:19:36 19° NNE 17:23:17 55° NW 17:28:32 10° WSW
MOS 1 Rocket 3.8 17:18:45 10° S 17:23:36 67° W 17:28:45 10° NNW
BREEZE M DEB (TANK) 2.9 17:23:48 10° WSW 17:25:20 35° SW 17:25:20 35° SW
Cosmos 1076 Rocket 3.3 17:22:13 10° N 17:26:31 71° ENE 17:30:49 10° SSE
Cosmos 1933 3.4 17:24:24 10° SSW 17:28:12 69° W 17:30:45 20° N
Cosmos 2084 Rocket 4.3 17:27:26 10° NW 17:31:30 48° SW 17:35:33 10° SSE
Cosmos 2227 Rocket 2.2 17:25:56 10° NNW 17:31:37 81° WSW 17:37:15 10° SSE
Cosmos 1606 Rocket 3.7 17:27:17 10° SSW 17:31:40 75° W 17:35:23 15° N
Cosmos 1538 Rocket 3.9 17:27:19 10° NNW 17:32:35 63° ENE 17:36:28 18° SE
PSLV R/B 3.2 17:36:04 65° E 17:36:14 65° ENE 17:40:16 10° N
CZ-2D R/B 3.4 17:32:48 10° SSE 17:37:01 88° WSW 17:41:12 10° NNW
COSMO-SKYMED 1 2.6 17:39:14 54° SE 17:39:14 54° SE 17:42:48 10° S
Meteor 2-2 Rocket 4.4 17:35:03 10° SSE 17:40:23 46° E 17:40:36 45° E
SL-19 R/B 4.1 17:35:20 10° SSE 17:40:40 75° ENE 17:46:20 10° NNW
Resurs 1-3 3.4 17:36:44 10° SSE 17:41:02 82° ENE 17:45:21 10° NNW
Cosmos 1244 Rocket 4.4 17:35:36 10° N 17:41:50 59° ENE 17:47:56 10° SSE
BREEZE-M DEB (TANK) 3.9 17:40:21 10° W 17:44:02 86° SSW 17:48:33 31° ESE
Meteor 2-20 4.3 17:41:08 10° S 17:47:18 83° E 17:53:29 10° N
Cosmos 1697 Rocket 2.7 17:42:23 10° SSW 17:47:59 76° WNW 17:50:44 31° NNE
Lacrosse 5 rocket 2.9 17:47:33 10° WNW 17:49:58 22° NNW 17:49:58 22° NNW
Cosmos 1354 Rocket 4.3 17:45:30 10° SW 17:50:43 64° WNW 17:53:34 27° N
BREEZE-M DEB (TANK) 4.2 17:49:26 10° WNW 17:53:19 70° NNE 17:57:03 38° E
Cosmos 1461 3.6 17:50:13 10° WSW 17:53:57 43° NW 17:54:18 42° NNW
Spot 4 Rocket 4.1 17:49:42 10° S 17:54:48 74° WSW 17:59:56 10° NNW
IRAS Rocket 4.1 17:50:27 10° SSE 17:55:57 86° WSW 18:01:28 10° NNW
Cosmos 1726 Rocket 4.2 17:52:25 10° SSW 17:56:59 57° WNW 17:59:49 22° N
SL-08 R/B 4.4 17:53:49 10° N 18:00:08 67° ENE 18:06:26 10° SSE
Cosmos 1655 Rocket 4.4 17:54:39 10° NNW 18:00:48 63° W 18:06:55 10° S
SKYMED 2 4.1 17:59:35 35° N 18:01:13 57° WNW 18:05:27 10° SSW
Gbstr 26 Del rocket 3.6 17:59:46 10° WSW 18:02:38 45° SW 18:02:38 45° SW
Cosmos 1898 Rocket 4.2 17:59:57 10° S 18:03:17 38° SSE 18:03:17 38° SSE
Meteor 2-10 4.2 18:02:48 10° NNW 18:08:08 74° W 18:13:38 10° S
Meteor 2-20 Rocket 4.3 18:03:10 10° S 18:09:26 87° E 18:12:29 32° N
YAOGAN 1 3.4 18:05:40 10° S 18:09:48 49° W 18:13:57 10° NNW
CENTAUR R/B 4.1 18:04:16 10° WNW 18:09:53 28° N 18:12:28 24° NNE
USA 281 4.4 18:17:15 26° NNE 18:17:15 26° NNE 18:20:46 10° NNW
Cosmos 2082 3.7 18:11:55 10° NNW 18:17:03 69° N 18:17:03 69° N
Meteor 1-26 Rocket 4.1 18:13:02 10° S 18:18:03 78° SSW 18:18:03 78° SSW
USA 238 DEB 3.3 18:13:32 10° SSW 18:19:38 79° SE 18:19:57 77° E
USA 238 3.3 18:13:38 10° SSW 18:19:45 78° SE 18:20:02 77° E
USA 215 3.3 18:22:49 59° NNE 18:23:07 60° NNE 18:29:33 10° NW
Cosmos 372 Rocket 4.4 18:22:25 10° SSW 18:26:26 55° SW 18:26:26 55° SW
Aureole 1 Rocket 4.1 18:24:18 10° SSW 18:27:16 44° SW 18:27:16 44° SW
Cosmos 2219 3.6 18:35:57 10° NW 18:41:35 60° WSW 18:41:35 60° WSW
Cosmos 1980 Rocket 2.9 18:45:03 10° SW 18:49:48 51° W 18:49:48 51° W
Cosmos 2263 Rocket 3.9 18:57:38 10° NW 19:02:28 29° WSW 19:04:58 21° SW
